Vertical_Velocity
-2 1 -7 7 13 10 -5 12 4 -1 -3 1 -4 -14 1 6 9 9 12 1 2 -1 -0 -1 -0 1 -2 -0 -1 0 -0 -2 -0 -1 -3 1 -2 -1 -5 1 -2 -2 2 -1 -2 -1 -1 -2 2
0 4 14 -4 12 6 2 2 1 6 7 -3 0 9 -7 11 -5 -4 -1 2 1 -4 -3 -1 -1 -1 -1 -2 -1 -3 -2 -1 -0 -1 1 2 0 -0 -3 2 -0 -2 -2 3 -3 -0 -1 -2 -1
-1 -8 19 4 2 0 5 2 3 4 -3 6 -2 -7 1 13 -2 2 2 1 -1 -1 2 -0 0 -1 -2 -1 -1 -1 -3 -0 -1 0 1 3 -0 1 -1 3 2 -2 0 -0 -1 -1 -2 -3 -2
-6 4 5 11 -4 7 5 4 1 1 -1 6 -3 -1 -5 9 3 -4 3 -1 0 1 -2 -0 2 1 -1 -1 -2 -4 -0 -1 -1 1 1 0 1 0 1 1 0 -1 -0 -0 -1 -2 -3 -3 -2
3 1 5 5 -8 4 1 2 -1 1 3 1 -3 10 -1 8 3 1 -2 5 -1 0 -1 -1 -3 -1 1 0 -1 -0 -3 -2 -1 -1 -1 -2 -1 0 1 1 -0 -4 1 2 -2 -1 -1 -3 -1
7 13 7 0 -0 3 2 -2 0 -1 3 5 -6 -4 2 11 2 5 7 0 0 -4 -4 -3 -4 -2 -2 -3 -2 -0 -2 -2 -1 -0 -1 -1 -1 -0 -0 -0 -1 -2 1 0 -1 -2 1 -1 -1
10 7 -4 -0 3 2 4 -1 -2 2 1 0 18 -3 -0 8 1 1 -1 -2 1 -1 -3 -2 -4 -2 -3 -2 -1 -2 -0 -3 -3 -1 -1 -0 -1 -1 -1 -2 -2 -2 2 -0 -2 -2 -3 -2 -1
14 12 1 -2 -1 12 6 -3 6 -6 10 10 17 1 4 0 -1 -2 -1 -1 4 -0 0 0 -1 -2 -8 -3 -3 -3 -3 -0 -1 -3 -2 -1 -0 -2 -2 0 -0 -1 -0 -1 0 0 -1 1 -2
7 9 -1 -3 -4 13 5 -5 5 6 -12 -7 4 -5 0 -3 -4 -5 -4 -5 3 1 2 3 5 -1 -2 -1 -3 -3 -4 -3 -3 -3 -2 -3 -5 1 -4 -1 -1 -1 1 0 0 -2 1 0 1
9 7 4 7 4 3 2 -2 5 -11 2 5 -2 4 1 -4 -3 2 -7 -3 2 1 -3 2 -3 -2 -1 24 4 -7 -8 -8 -5 -7 -8 -3 -1 13 7 -0 -1 0 -2 -1 -1 -2 -1 -1 -2
-6 5 2 5 -2 -1 -2 -3 -1 1 2 3 -3 -0 1 -4 4 -8 3 3 1 -1 -1 -0 -0 -2 -4 -5 2 14 16 12 6 -2 -4 -4 14 -3 -3 -8 -4 -1 -2 -1 -2 -1 0 -7 11
3 0 1 3 -3 5 -1 -1 0 -5 10 -2 -2 -2 -3 -2 -7 9 11 3 -4 -4 2 -3 -3 -2 -5 -4 -0 -0 -6 -3 3 3 -7 -2 -2 -4 -3 19 -1 1 -12 -4 -3 -1 7 -3 -2
3 2 -2 -4 3 -1 -1 2 1 2 0 -3 -3 -4 -4 10 -9 7 -4 -9 -1 1 4 8 9 -0 2 -2 -4 -1 -1 0 -1 -2 1 -6 -6 3 19 -0 -4 22 18 8 -6 -6 6 -6 -3
3 -1 -0 0 1 -3 -11 5 -5 5 1 -2 -2 4 2 -5 -13 -9 2 -3 -4 -3 -5 -3 -4 0 0 0 0 -3 -1 -0 -4 -9 -5 -1 -6 -13 -5 8 2 -7 -8 -12 3 -7 1 -4 -4
-2 2 3 2 -0 2 -8 3 1 -3 2 3 -4 -12 -5 -0 4 -6 -3 -8 -4 5 2 1 -2 -1 -2 0 0 -1 -1 1 -5 3 6 11 3 -6 -2 -4 -4 -0 1 3 22 5 -11 -10 7
4 9 5 3 2 1 14 8 4 5 -0 4 8 2 3 3 3 -7 -14 7 13 -3 7 -5 -9 -8 -3 -1 -2 -2 -2 1 -17 -4 -3 1 3 -3 -7 -8 -11 -6 -3 -2 9 -1 -2 1 -2
4 -1 4 9 -1 1 4 4 3 -1 3 0 -0 -2 0 3 3 -1 11 12 4 2 -15 5 -2 -2 -10 -6 -10 -7 -9 -7 -4 -9 2 0 -7 -2 -5 0 2 -15 -5 -7 -2 3 4 2 5
-3 3 -1 -3 4 2 2 5 2 0 2 -2 4 3 4 2 3 -13 -2 -11 -10 14 -1 -7 14 3 -2 -7 -4 -6 1 0 -5 8 -4 -4 24 5 -1 -1 7 -0 4 9 10 7 3 -1 -6
3 4 -0 6 3 1 -1 0 0 1 3 -2 -3 4 4 -4 -4 -1 3 6 5 -3 -7 -16 -8 -6 1 9 14 23 31 38 38 22 -4 28 5 11 21 29 31 -29 22 -2 10 -5 10 -5 2
1 1 3 5 1 -2 0 -0 0 0 -5 2 3 3 3 -3 3 4 -9 -19 -5 -10 14 9 7 -1 -2 -0 1 5 4 -2 3 7 5 12 19 21 5 9 6 0 15 -9 16 -7 2 10 5
-1 2 1 2 2 1 5 5 6 4 4 -1 -9 -4 -1 3 -5 -4 9 13 8 1 -2 -6 -4 -2 -9 -10 -8 -7 -8 -9 -8 -7 -5 -1 2 -4 -3 6 2 -3 8 -4 8 15 -19 -2 -11
2 1 1 0 1 -1 1 -2 4 1 1 2 3 3 1 0 2 -0 -5 -5 -4 15 5 -2 -5 -9 -3 5 2 2 5 4 7 3 -2 -4 -1 2 9 6 1 0 1 -0 0 6 9 9 13
3 0 0 0 1 9 3 8 10 1 4 1 2 -2 5 1 -6 1 1 1 0 -0 11 1 -6 -0 5 -1 1 1 -2 2 0 -2 -9 -6 -1 3 -1 -3 -2 1 5 1 -1 -4 -2 2 7
1 2 1 1 3 8 -8 2 1 1 -2 4 1 4 -3 -1 4 -11 9 1 3 -0 -3 -6 -3 -6 6 -4 -6 -8 -4 1 -1 -2 -3 -8 -9 -6 -2 -1 -5 -2 -0 1 -1 3 2 2 2
4 4 1 6 6 -6 -1 0 3 3 2 -2 1 1 2 -3 -0 -1 0 -5 -2 -1 -4 -4 -4 -3 5 -3 -2 -2 0 1 2 1 -1 1 -2 -6 -8 -6 1 2 -1 -4 -3 1 5 4 2
-4 3 -0 -2 1 -4 0 -1 11 2 1 -1 -1 -4 1 -0 2 1 -0 0 -5 5 -3 -3 -6 5 -1 -6 -4 -1 0 -1 -3 -2 -3 -5 -4 -5 -6 -5 -4 -3 -2 -2 0 4 3 4 -1
-6 7 -10 8 -0 5 -3 3 2 2 3 -0 2 -2 1 1 1 2 -2 2 -4 -0 -1 -0 -1 -2 -3 -8 -4 -4 -2 -2 -3 -3 -2 -3 -6 -2 1 1 1 -1 1 -4 -2 -0 0 -4 6
11 5 11 0 -1 -1 -3 1 1 3 2 2 1 0 -0 0 -1 -3 -2 1 1 -2 4 -2 -2 -5 -1 -3 -2 -2 -1 0 -2 -2 -8 -2 3 3 0 -1 -3 -2 1 2 1 -2 -2 0 0
6 1 1 -6 -1 0 0 5 -0 -1 0 1 -0 1 1 1 1 -3 -1 0 3 -1 2 -1 -7 -3 -2 -2 -3 -1 -3 -7 -6 -7 2 -1 -3 -3 -2 2 0 -0 -2 -0 -1 0 0 2 -4
2 0 -2 -5 -0 -1 1 4 0 -0 1 -2 -4 7 3 -1 1 1 -2 2 -0 3 2 -6 -4 -2 -2 -3 1 -4 -6 -4 5 0 -5 2 -1 -2 2 4 1 4 2 1 -0 -3 -3 -2 -1
Height
1511 1510 1509 1510 1511 1491 1478 1472 1464 1464 1471 1481 1486 1490 1509 1516 1518 1530 1536 1535 1536 1537 1539 1540 1542 1542 1542 1542 1543 1543 1543 1544 1544 1544 1543 1543 1542 1543 1542 1543 1543 1544 1543 1543 1544 1544 1544 1545 1546
1510 1511 1513 1507 1505 1493 1477 1466 1473 1473 1480 1485 1491 1496 1503 1525 1528 1531 1535 1537 1538 1539 1541 1542 1543 1543 1544 1544 1544 1544 1544 1544 1544 1544 1544 1543 1543 1543 1543 1544 1543 1544 1544 1543 1544 1544 1544 1545 1546
1510 1511 1512 1500 1491 1486 1483 1475 1478 1480 1486 1485 1495 1504 1513 1530 1533 1534 1536 1538 1539 1541 1542 1543 1544 1544 1544 1544 1544 1544 1544 1545 1545 1545 1544 1543 1544 1543 1543 1544 1544 1543 1545 1544 1544 1545 1545 1545 1546
1511 1510 1507 1498 1485 1476 1475 1478 1480 1484 1490 1490 1496 1515 1527 1534 1533 1534 1537 1539 1541 1542 1543 1544 1545 1545 1545 1546 1545 1545 1545 1545 1545 1545 1544 1544 1544 1544 1543 1544 1543 1543 1544 1544 1545 1545 1546 1546 1547
1511 1507 1498 1491 1476 1471 1476 1480 1483 1487 1494 1497 1501 1524 1530 1536 1536 1538 1540 1542 1543 1544 1545 1546 1547 1546 1546 1546 1545 1545 1545 1545 1545 1545 1545 1545 1544 1544 1544 1544 1544 1544 1544 1544 1544 1546 1547 1548 1549
1508 1500 1496 1486 1470 1472 1480 1484 1487 1490 1497 1504 1509 1521 1536 1538 1539 1541 1542 1543 1545 1545 1546 1547 1547 1547 1547 1546 1545 1545 1545 1545 1545 1545 1545 1545 1545 1545 1545 1544 1544 1544 1544 1544 1544 1546 1547 1548 1550
1505 1495 1491 1478 1476 1478 1483 1488 1493 1501 1506 1512 1510 1520 1537 1539 1541 1542 1543 1545 1545 1546 1546 1546 1547 1547 1547 1547 1546 1546 1546 1545 1545 1545 1545 1546 1545 1546 1545 1545 1545 1545 1545 1544 1545 1545 1546 1548 1550
1501 1494 1489 1478 1479 1482 1486 1492 1499 1506 1517 1515 1515 1519 1534 1538 1541 1543 1545 1546 1547 1546 1547 1547 1547 1547 1547 1546 1546 1546 1546 1546 1545 1546 1546 1547 1547 1547 1546 1545 1546 1546 1546 1546 1546 1546 1547 1549 1549
1499 1499 1490 1477 1483 1487 1489 1495 1508 1518 1521 1522 1524 1524 1531 1537 1541 1544 1546 1547 1548 1549 1549 1548 1547 1548 1547 1546 1547 1547 1546 1546 1546 1546 1546 1547 1546 1548 1547 1547 1546 1546 1547 1547 1547 1547 1548 1549 1549
1497 1496 1489 1484 1487 1491 1497 1502 1507 1517 1523 1529 1532 1535 1537 1540 1542 1545 1546 1547 1549 1549 1550 1550 1549 1549 1549 1550 1548 1546 1546 1545 1544 1544 1545 1547 1548 1551 1549 1548 1548 1547 1547 1547 1547 1548 1548 1549 1549
1494 1495 1491 1491 1494 1497 1506 1511 1513 1510 1523 1530 1534 1538 1540 1542 1545 1545 1546 1547 1549 1549 1549 1549 1550 1549 1549 1550 1551 1550 1549 1549 1547 1547 1547 1547 1549 1549 1549 1548 1548 1548 1547 1547 1547 1548 1548 1548 1549
1498 1496 1500 1501 1499 1500 1509 1517 1523 1522 1531 1534 1536 1539 1541 1544 1544 1546 1548 1548 1548 1548 1549 1548 1548 1548 1548 1548 1548 1547 1547 1548 1548 1546 1545 1546 1546 1548 1548 1548 1547 1547 1545 1546 1546 1547 1548 1548 1548
1498 1500 1506 1507 1505 1509 1513 1520 1525 1531 1533 1535 1538 1540 1542 1543 1545 1546 1547 1548 1549 1549 1548 1547 1547 1546 1545 1546 1546 1545 1545 1545 1545 1546 1545 1545 1545 1547 1547 1547 1547 1548 1546 1546 1546 1547 1547 1546 1546
1499 1503 1509 1511 1512 1516 1520 1525 1522 1534 1534 1536 1538 1540 1542 1544 1546 1546 1547 1548 1548 1548 1546 1546 1545 1544 1543 1543 1542 1542 1542 1543 1542 1543 1544 1543 1543 1544 1544 1545 1545 1545 1545 1545 1545 1545 1546 1545 1545
1504 1507 1509 1510 1512 1515 1518 1523 1527 1532 1532 1534 1538 1540 1543 1544 1545 1546 1546 1547 1547 1546 1546 1545 1543 1541 1541 1540 1540 1539 1540 1540 1540 1541 1541 1541 1539 1539 1540 1540 1541 1541 1541 1541 1541 1541 1541 1543 1543
1505 1503 1510 1506 1509 1514 1513 1527 1529 1530 1531 1532 1536 1539 1542 1544 1545 1546 1546 1546 1546 1545 1546 1544 1543 1541 1540 1538 1537 1537 1537 1537 1537 1537 1537 1537 1536 1535 1535 1535 1536 1537 1537 1537 1537 1537 1536 1538 1539
1504 1507 1498 1506 1505 1506 1515 1521 1527 1528 1529 1532 1535 1538 1541 1543 1545 1546 1546 1546 1547 1544 1545 1544 1541 1539 1538 1538 1536 1535 1534 1534 1533 1532 1532 1531 1531 1530 1529 1530 1529 1531 1531 1531 1531 1531 1531 1532 1533
1501 1501 1489 1495 1504 1505 1505 1519 1525 1527 1529 1532 1533 1536 1539 1541 1544 1545 1546 1546 1547 1546 1545 1544 1543 1539 1536 1534 1533 1532 1530 1529 1529 1529 1529 1528 1526 1524 1524 1522 1524 1524 1524 1524 1524 1524 1524 1525 1526
1486 1486 1489 1500 1504 1503 1506 1515 1523 1526 1530 1533 1533 1534 1537 1541 1543 1543 1544 1545 1545 1545 1543 1542 1541 1539 1537 1535 1532 1532 1531 1529 1527 1527 1524 1523 1523 1521 1520 1519 1518 1519 1517 1515 1516 1518 1519 1517 1520
1489 1491 1494 1500 1505 1509 1507 1513 1518 1524 1527 1527 1529 1532 1536 1539 1541 1542 1543 1544 1543 1543 1541 1540 1538 1536 1534 1532 1529 1528 1525 1523 1521 1521 1520 1520 1518 1515 1515 1512 1512 1510 1508 1509 1509 1510 1512 1511 1513
1490 1492 1492 1499 1506 1509 1506 1511 1515 1520 1523 1527 1532 1534 1536 1538 1540 1541 1542 1542 1541 1541 1539 1537 1536 1534 1533 1531 1527 1524 1521 1518 1516 1515 1514 1512 1510 1508 1506 1505 1503 1503 1501 1500 1502 1502 1504 1502 1505
1499 1493 1495 1499 1511 1515 1502 1518 1513 1515 1521 1524 1528 1532 1536 1537 1539 1540 1541 1541 1541 1540 1537 1535 1533 1532 1531 1527 1524 1521 1518 1515 1513 1510 1508 1505 1502 1500 1499 1498 1496 1495 1494 1494 1494 1494 1497 1497 1497
1501 1499 1501 1502 1508 1509 1506 1518 1510 1514 1519 1523 1528 1533 1535 1537 1540 1540 1541 1540 1540 1538 1535 1532 1531 1530 1528 1523 1520 1516 1512 1509 1506 1504 1501 1499 1497 1496 1493 1490 1488 1486 1486 1486 1486 1487 1488 1488 1489
1500 1503 1503 1503 1506 1520 1506 1507 1517 1511 1514 1522 1528 1532 1535 1538 1539 1540 1539 1538 1538 1536 1533 1531 1530 1528 1524 1519 1516 1512 1508 1504 1501 1498 1496 1493 1492 1490 1488 1484 1481 1479 1478 1477 1477 1477 1478 1479 1479
1505 1507 1519 1524 1521 1523 1498 1506 1509 1514 1515 1523 1528 1532 1535 1538 1539 1539 1538 1538 1537 1535 1532 1530 1528 1526 1522 1515 1511 1508 1504 1501 1497 1494 1491 1488 1485 1482 1479 1476 1475 1473 1471 1470 1469 1469 1468 1468 1469
1503 1502 1514 1526 1516 1516 1505 1512 1514 1513 1520 1525 1530 1533 1535 1537 1538 1538 1537 1537 1536 1533 1531 1528 1527 1523 1517 1511 1507 1504 1500 1497 1494 1491 1487 1483 1480 1476 1474 1470 1468 1466 1464 1463 1462 1461 1461 1462 1462
1496 1502 1496 1503 1498 1504 1511 1520 1515 1514 1522 1527 1530 1534 1535 1537 1537 1537 1537 1535 1534 1532 1530 1527 1524 1520 1515 1509 1505 1501 1498 1495 1492 1488 1484 1480 1476 1473 1470 1467 1463 1461 1458 1457 1455 1453 1454 1454 1455
1499 1497 1505 1506 1534 1534 1506 1512 1521 1517 1521 1526 1530 1533 1535 1536 1537 1537 1536 1535 1533 1531 1529 1525 1521 1517 1513 1506 1501 1499 1496 1493 1489 1485 1480 1476 1472 1468 1465 1462 1458 1455 1452 1451 1449 1447 1447 1446 1446
1500 1504 1500 1511 1535 1534 1523 1534 1518 1518 1522 1527 1530 1532 1534 1536 1536 1536 1535 1534 1532 1530 1527 1523 1519 1515 1509 1503 1499 1496 1493 1490 1486 1482 1477 1473 1468 1464 1460 1458 1454 1451 1448 1446 1443 1441 1441 1440 1440
1494 1497 1503 1530 1538 1528 1522 1531 1521 1523 1526 1529 1531 1531 1533 1535 1535 1535 1534 1533 1531 1528 1525 1521 1517 1512 1506 1501 1497 1494 1491 1487 1484 1479 1474 1469 1464 1460 1456 1453 1450 1447 1444 1441 1439 1437 1435 1434 1434